Location: Unspecified
(0.0000°N, 0.0000°E)
Time: 21:50:40
(UTC+00:00)

FALCON 9 DEB - Visible Passes

Search period start: 29 April 2025 00:00
Search period end: 09 May 2025 00:00
Orbit: 470 x 479 km, 53.0° (Epoch: 28 April)

Date Brightness Start Highest point End Pass type
(mag) Time Alt. Az. Time Alt. Az. Time Alt. Az.
29 Apr ? 03:54:05 10° NNE 03:56:16 15° NE 03:58:26 10° E visible
29 Apr ? 05:31:06 10° WNW 05:33:57 21° SW 05:36:49 10° S visible
30 Apr ? 05:02:52 21° W 05:04:12 26° SW 05:07:22 10° S visible
01 May ? 04:36:53 16° S 04:36:53 16° S 04:37:48 10° S visible
